Location: Aulnoy
(48.8410°N, 3.0967°E)
Time: 00:34:57
(UTC+00:00)

Envisat - Pass Details

Date: 02 March 2024
Orbit: 762 x 764 km, 98.3° (Epoch: 12 April)

Event Time Altitude Azimuth Distance (km) Brightness Sun altitude
Rises 04:42:14 0° 4° (N) 3,242 6.4 -18.0°
Reaches altitude 10° 04:44:58 10° 350° (N) 2,311 5.5 -17.5°
Maximum altitude 04:48:52 23° 300° (WNW) 1,595 4.2 -16.9°
Enters shadow 04:49:09 23° 295° (WNW) 1,599 4.2 -16.9°
